This demonstration page uses our WeatherBlox Daily Observations layout. Learn more.

Left ArrowRight Arrow

44.8408, -93.29828

Hourly Observations for February 19, 2022

Temp ( °F °C ) Dew Point ( °F °C ) Humidity (%) Winds ( mph kmh ) Pressure ( in mb ) Visibility ( mi km ) Precip ( " mm )
12:53 am 00:53 Clear 3 -16.1 -8 -22.2 60 60 NW 15 24 30.32 1027 10 16 0.00 0.00
1:53 am 01:53 Clear 2 -16.7 -9 -22.8 59 59 NW 15 24 30.35 1028 10 16 0.00 0.00
2:53 am 02:53 Clear 1 -17.2 -10 -23.3 59 59 NW 15 24 30.38 1029 10 16 0.00 0.00
3:53 am 03:53 Clear 1 -17.2 -10 -23.3 59 59 NNW 16 26 30.40 1029 10 16 0.00 0.00
4:53 am 04:53 Clear 0 -17.8 -10 -23.3 62 62 NW 10 17 30.43 1031 10 16 0.00 0.00
5:53 am 05:53 Clear 0 -17.8 -10 -23.3 62 62 W 7 11 30.46 1032 10 16 0.00 0.00
6:53 am 06:53 Clear -1 -18.3 -10 -23.3 65 65 W 7 11 30.47 1032 10 16 0.00 0.00
7:53 am 07:53 Sunny 0 -17.8 -9 -22.8 65 65 W 7 11 30.49 1033 10 16 0.00 0.00
8:53 am 08:53 Sunny 2 -16.7 -7 -21.7 65 65 W 5 7 30.48 1032 10 16 0.00 0.00
9:53 am 09:53 Sunny 4 -15.6 -7 -21.7 60 60 WSW 6 9 30.47 1032 10 16 0.00 0.00
10:53 am 10:53 Partly Cloudy 6 -14.4 -6 -21.1 57 57 S 7 11 30.44 1031 10 16 0.00 0.00
11:53 am 11:53 Mostly Cloudy 10 -12.2 -4 -20 53 53 SSW 9 15 30.41 1030 10 16 0.00 0.00
12:53 pm 12:53 Mostly Cloudy 12 -11.1 -2 -18.9 53 53 S 13 20 30.35 1028 10 16 0.00 0.00
1:53 pm 13:53 Mostly Cloudy 16 -8.9 0 -17.8 49 49 SSW 13 20 30.28 1025 10 16 0.00 0.00
2:53 pm 14:53 Mostly Cloudy 18 -7.8 1 -17.2 47 47 SSW 13 20 30.22 1023 10 16 0.00 0.00
3:53 pm 15:53 Mostly Cloudy 19 -7.2 4 -15.6 51 51 SSW 15 24 30.15 1021 10 16 0.00 0.00
4:53 pm 16:53 Mostly Cloudy 21 -6.1 6 -14.4 52 52 S 18 30 30.09 1019 10 16 0.00 0.00
5:53 pm 17:53 Mostly Cloudy 21 -6.1 7 -13.9 54 54 S 16 26 30.04 1017 10 16 0.00 0.00
6:53 pm 18:53 Mostly Cloudy 22 -5.6 8 -13.3 55 55 S 13 20 30.01 1016 10 16 0.00 0.00
7:53 pm 19:53 Mostly Cloudy 22 -5.6 8 -13.3 55 55 S 15 24 29.97 1015 10 16 0.00 0.00
8:53 pm 20:53 Mostly Cloudy 23 -5 8 -13.3 53 53 S 15 24 29.93 1013 10 16 0.00 0.00
9:53 pm 21:53 Mostly Clear 25 -3.9 7 -13.9 46 46 S 17 28 29.87 1012 10 16 0.00 0.00
10:53 pm 22:53 Mostly Clear 26 -3.3 7 -13.9 44 44 S 15 24 29.82 1010 10 16 0.00 0.00
11:53 pm 23:53 Clear 27 -2.8 8 -13.3 45 45 S 16 26 29.76 1008 10 16 0.00 0.00

Powered by AerisWeather